C/2019 K7 ( Smith )

Japanese version
Home page
Updated on December 9, 2019

---------------------------------------------------------------------

* Profile

Discovery Date May 30, 2019
Magnitude 17.7 mag
Discoverer Ken W. Smith (Asteroid Terrestrial-Impact Last Alert System (ATLAS) search program)

* Pictures

* Orbital Elements

Epoch 2020 May 31.0 TT = JDT 2459000.5
T 2020 June 16.90596 TT                                 Williams
q   4.4749299            (2000.0)            P               Q
z  -0.0003160      Peri.   27.29264     +0.46156508     -0.44584597
 +/-0.0000095      Node   307.92417     -0.88099557     -0.12907850
e   1.0014140      Incl.  103.53147     +0.10394460     +0.88575398
From 237 observations 2019 May 30-Oct. 30, mean residual 0".4.

* Finding Charts

* Magnitudes Graph

        m1 = 6.0 + 5 log d + 10.0 log r

---------------------------------------------------------------------

The orbital elements are published on M.P.E.C. 2019-V116.
The charts are made with StellaNavigator Ver.10 (AstroArts).
The magnitudes graphs are made with Comet for Windows.

---------------------------------------------------------------------

Copyright(C) Seiichi Yoshida (comet@aerith.net). All rights reserved.